| time (UTC) | temp F | wind direction | speed MPH | gust MPH | rain 1hr in | rain 24hr in | rain mn in | humidity % | barometer mb |
| 20260505021639 | 37 | 227 | 1.0 | 3.0 | 0.00 | 0.01 | 0.01 | 92 | 1017.7 |
| 20260505021137 | 37 | 50 | 4.0 | 6.0 | 0.00 | 0.01 | 0.01 | 90 | 1017.5 |
| 20260505020632 | 38 | 80 | 1.0 | 6.0 | 0.00 | 0.01 | 0.01 | 87 | 1017.3 |
| 20260505020128 | 38 | 208 | 0.0 | 3.0 | 0.00 | 0.01 | 0.01 | 86 | 1017.3 |
| 20260505015625 | 38 | 52 | 1.0 | 4.0 | 0.00 | 0.01 | 0.01 | 84 | 1017.4 |
| 20260505015121 | 38 | 249 | 0.0 | 2.0 | 0.00 | 0.01 | 0.01 | 86 | 1017.4 |
| 20260505014618 | 38 | 251 | 1.0 | 4.0 | 0.00 | 0.01 | 0.01 | 86 | 1017.4 |
| 20260505014115 | 38 | 208 | 2.0 | 3.0 | 0.00 | 0.01 | 0.01 | 87 | 1017.4 |
| 20260505013608 | 38 | 249 | 1.0 | 2.0 | 0.00 | 0.01 | 0.01 | 88 | 1017.1 |
| 20260505013105 | 38 | 254 | 1.0 | 4.0 | 0.00 | 0.01 | 0.01 | 87 | 1017.1 |
| 20260505012603 | 38 | 234 | 3.0 | 6.0 | 0.00 | 0.01 | 0.01 | 87 | 1017.3 |
| 20260505012059 | 38 | 159 | 2.0 | 7.0 | 0.00 | 0.01 | 0.01 | 87 | 1017.4 |
| 20260505011555 | 38 | 139 | 3.0 | 6.0 | 0.00 | 0.01 | 0.01 | 86 | 1017.0 |
| 20260505011053 | 38 | 135 | 8.0 | 9.0 | 0.00 | 0.01 | 0.01 | 85 | 1017.3 |
| 20260505010548 | 38 | 223 | 2.0 | 7.0 | 0.00 | 0.01 | 0.01 | 87 | 1017.4 |
| 20260505010044 | 38 | 226 | 0.0 | 2.0 | 0.00 | 0.01 | 0.01 | 87 | 1017.5 |
| 20260505005541 | 38 | 212 | 2.0 | 4.0 | 0.00 | 0.01 | 0.01 | 86 | 1017.3 |
| 20260505005038 | 39 | 223 | 3.0 | 6.0 | 0.00 | 0.01 | 0.01 | 85 | 1017.3 |
| 20260505004535 | 39 | 226 | 4.0 | 8.0 | 0.00 | 0.01 | 0.01 | 87 | 1017.4 |
| 20260505004031 | 39 | 238 | 6.0 | 8.0 | 0.00 | 0.01 | 0.01 | 87 | 1017.4 |
| 20260505003529 | 38 | 171 | 7.0 | 9.0 | 0.00 | 0.01 | 0.01 | 87 | 1017.4 |
| 20260505003026 | 39 | 173 | 3.0 | 9.0 | 0.00 | 0.01 | 0.01 | 88 | 1017.4 |
| 20260505002520 | 39 | 207 | 5.0 | 8.0 | 0.00 | 0.01 | 0.01 | 88 | 1017.4 |
| 20260505002015 | 40 | 192 | 3.0 | 3.0 | 0.00 | 0.01 | 0.01 | 86 | 1017.8 |
| 20260505001512 | 40 | 157 | 2.0 | 7.0 | 0.00 | 0.01 | 0.01 | 84 | 1017.8 |
| 20260505001009 | 40 | 275 | 1.0 | 3.0 | 0.00 | 0.01 | 0.01 | 81 | 1017.9 |
| 20260505000506 | 40 | 275 | 1.0 | 2.0 | 0.00 | 0.01 | 0.01 | 81 | 1018.5 |
| 20260505000003 | 40 | 262 | 0.0 | 2.0 | 0.00 | 0.01 | 0.01 | 81 | 1018.3 |
| 20260504235500 | 40 | 245 | 0.0 | 2.0 | 0.00 | 0.01 | 0.01 | 81 | 1018.5 |
| 20260504234956 | 40 | 273 | 1.0 | 2.0 | 0.00 | 0.01 | 0.01 | 80 | 1018.5 |
| 20260504234453 | 40 | 262 | 1.0 | 3.0 | 0.00 | 0.01 | 0.01 | 81 | 1017.9 |
| 20260504233949 | 40 | 263 | 0.0 | 0.0 | 0.00 | 0.01 | 0.01 | 80 | 1017.9 |
| 20260504233445 | 40 | 266 | 0.0 | 0.0 | 0.00 | 0.01 | 0.01 | 80 | 1017.9 |
| 20260504232943 | 40 | 256 | 0.0 | 0.0 | 0.00 | 0.01 | 0.01 | 82 | 1018.1 |
| 20260504232440 | 40 | 274 | 0.0 | 0.0 | 0.00 | 0.01 | 0.01 | 80 | 1017.8 |
| 20260504231937 | 40 | 264 | 0.0 | 1.0 | 0.07 | 0.01 | 0.01 | 81 | 1017.4 |
| 20260504231433 | 40 | 3 | 1.0 | 3.0 | 0.00 | 0.00 | 0.00 | 77 | 1017.3 |
| 20260504230930 | 41 | 358 | 2.0 | 3.0 | 0.00 | 0.00 | 0.00 | 74 | 1017.7 |
| 20260504230426 | 41 | 300 | 2.0 | 3.0 | 0.00 | 0.00 | 0.00 | 72 | 1017.7 |
| 20260504225926 | 41 | 5 | 4.0 | 7.0 | 0.00 | 0.00 | 0.00 | 71 | 1017.7 |
| 20260504225422 | 41 | 295 | 2.0 | 3.0 | 0.00 | 0.00 | 0.00 | 71 | 1017.7 |
| 20260504224919 | 42 | 20 | 4.0 | 7.0 | 0.00 | 0.00 | 0.00 | 69 | 1017.5 |
| 20260504224415 | 42 | 343 | 2.0 | 7.0 | 0.00 | 0.00 | 0.00 | 69 | 1017.0 |
| 20260504223913 | 43 | 270 | 5.0 | 7.0 | 0.00 | 0.00 | 0.00 | 67 | 1017.1 |
| 20260504223408 | 43 | 358 | 6.0 | 11.0 | 0.00 | 0.00 | 0.00 | 65 | 1017.1 |
| 20260504222904 | 43 | 263 | 1.0 | 3.0 | 0.00 | 0.00 | 0.00 | 66 | 1016.9 |
| 20260504222401 | 43 | 331 | 5.0 | 8.0 | 0.00 | 0.00 | 0.00 | 65 | 1017.1 |
| 20260504221900 | 43 | 349 | 4.0 | 6.0 | 0.00 | 0.00 | 0.00 | 64 | 1016.9 |
| 20260504221356 | 44 | 19 | 3.0 | 8.0 | 0.00 | 0.00 | 0.00 | 61 | 1017.0 |
| 20260504220853 | 46 | 303 | 5.0 | 14.0 | 0.00 | 0.00 | 0.00 | 56 | 1017.1 |
| 20260504220350 | 46 | 19 | 3.0 | 7.0 | 0.00 | 0.00 | 0.00 | 54 | 1016.8 |
| 20260504215848 | 47 | 7 | 2.0 | 6.0 | 0.00 | 0.00 | 0.00 | 53 | 1016.9 |
| 20260504215344 | 47 | 300 | 3.0 | 4.0 | 0.00 | 0.00 | 0.00 | 50 | 1017.0 |
| 20260504214840 | 48 | 302 | 1.0 | 6.0 | 0.00 | 0.00 | 0.00 | 48 | 1016.9 |
| 20260504214337 | 48 | 268 | 2.0 | 6.0 | 0.00 | 0.00 | 0.00 | 48 | 1016.8 |
| 20260504213834 | 49 | 170 | 4.0 | 8.0 | 0.00 | 0.00 | 0.00 | 45 | 1017.0 |
| 20260504213330 | 50 | 69 | 3.0 | 4.0 | 0.00 | 0.00 | 0.00 | 44 | 1016.9 |
| 20260504212827 | 50 | 308 | 1.0 | 2.0 | 0.00 | 0.00 | 0.00 | 43 | 1017.0 |
| 20260504212323 | 50 | 276 | 0.0 | 1.0 | 0.00 | 0.00 | 0.00 | 44 | 1016.6 |
| 20260504211821 | 50 | 240 | 3.0 | 4.0 | 0.00 | 0.00 | 0.00 | 42 | 1016.6 |
| 20260504211317 | 50 | 235 | 2.0 | 4.0 | 0.00 | 0.00 | 0.00 | 44 | 1017.0 |
| 20260504210815 | 50 | 58 | 4.0 | 6.0 | 0.00 | 0.00 | 0.00 | 45 | 1016.9 |
| 20260504210311 | 51 | 325 | 2.0 | 4.0 | 0.00 | 0.00 | 0.00 | 45 | 1016.9 |
| 20260504205808 | 50 | 355 | 1.0 | 2.0 | 0.00 | 0.00 | 0.00 | 46 | 1017.1 |
| 20260504205307 | 51 | 266 | 2.0 | 6.0 | 0.00 | 0.00 | 0.00 | 47 | 1017.1 |
| 20260504204805 | 50 | 95 | 2.0 | 4.0 | 0.00 | 0.00 | 0.00 | 46 | 1017.1 |
| 20260504204303 | 49 | 331 | 2.0 | 4.0 | 0.00 | 0.00 | 0.00 | 51 | 1017.3 |
| 20260504203802 | 49 | 15 | 6.0 | 8.0 | 0.00 | 0.00 | 0.00 | 51 | 1017.3 |
| 20260504203258 | 48 | 281 | 1.0 | 6.0 | 0.00 | 0.00 | 0.00 | 50 | 1017.5 |
| 20260504202753 | 48 | 63 | 2.0 | 4.0 | 0.00 | 0.00 | 0.00 | 53 | 1017.5 |
| 20260504202250 | 49 | 324 | 6.0 | 10.0 | 0.00 | 0.00 | 0.00 | 51 | 1017.8 |
| 20260504201747 | 49 | 305 | 3.0 | 8.0 | 0.00 | 0.00 | 0.00 | 52 | 1017.8 |
| 20260504201244 | 48 | 340 | 4.0 | 14.0 | 0.00 | 0.00 | 0.00 | 53 | 1017.7 |
| 20260504200742 | 47 | 359 | 4.0 | 6.0 | 0.00 | 0.00 | 0.00 | 56 | 1017.9 |
| 20260504200238 | 47 | 2 | 5.0 | 9.0 | 0.00 | 0.00 | 0.00 | 55 | 1017.8 |
| 20260504195735 | 47 | 27 | 7.0 | 10.0 | 0.00 | 0.00 | 0.00 | 57 | 1018.1 |
| 20260504195230 | 47 | 326 | 4.0 | 10.0 | 0.00 | 0.00 | 0.00 | 59 | 1018.2 |
| 20260504194728 | 47 | 347 | 4.0 | 13.0 | 0.00 | 0.00 | 0.00 | 62 | 1018.1 |
| 20260504194224 | 45 | 264 | 4.0 | 7.0 | 0.00 | 0.00 | 0.00 | 66 | 1018.3 |
| 20260504193720 | 43 | 1 | 9.0 | 13.0 | 0.00 | 0.00 | 0.00 | 68 | 1018.6 |
| 20260504193218 | 45 | 304 | 9.0 | 14.0 | 0.00 | 0.00 | 0.00 | 65 | 1018.5 |
| 20260504192716 | 45 | 296 | 5.0 | 6.0 | 0.00 | 0.00 | 0.00 | 57 | 1018.3 |
| 20260504192214 | 46 | 352 | 5.0 | 8.0 | 0.00 | 0.00 | 0.00 | 54 | 1018.3 |
| 20260504191712 | 47 | 356 | 6.0 | 10.0 | 0.00 | 0.00 | 0.00 | 52 | 1018.5 |
| 20260504191209 | 49 | 336 | 1.0 | 2.0 | 0.00 | 0.00 | 0.00 | 50 | 1018.2 |
| 20260504190704 | 50 | 277 | 2.0 | 4.0 | 0.00 | 0.00 | 0.00 | 47 | 1018.1 |
| 20260504190201 | 49 | 256 | 0.0 | 2.0 | 0.00 | 0.00 | 0.00 | 45 | 1017.9 |
| 20260504185657 | 48 | 76 | 3.0 | 6.0 | 0.00 | 0.00 | 0.00 | 46 | 1017.9 |
| 20260504185153 | 49 | 53 | 5.0 | 8.0 | 0.00 | 0.00 | 0.00 | 47 | 1018.2 |
| 20260504184650 | 49 | 29 | 2.0 | 6.0 | 0.00 | 0.00 | 0.00 | 46 | 1017.9 |
| 20260504184145 | 48 | 250 | 2.0 | 3.0 | 0.00 | 0.00 | 0.00 | 46 | 1018.3 |
| 20260504183642 | 48 | 330 | 1.0 | 2.0 | 0.00 | 0.00 | 0.00 | 49 | 1018.3 |
| 20260504183139 | 48 | 107 | 3.0 | 6.0 | 0.00 | 0.00 | 0.00 | 46 | 1018.3 |
| 20260504182637 | 47 | 293 | 2.0 | 4.0 | 0.00 | 0.00 | 0.00 | 47 | 1018.3 |
| 20260504182134 | 47 | 114 | 4.0 | 7.0 | 0.00 | 0.00 | 0.00 | 51 | 1018.1 |
| 20260504181632 | 46 | 19 | 4.0 | 6.0 | 0.00 | 0.00 | 0.00 | 48 | 1018.2 |
| 20260504181129 | 46 | 23 | 2.0 | 6.0 | 0.00 | 0.00 | 0.00 | 44 | 1018.1 |
| 20260504180628 | 48 | 224 | 6.0 | 14.0 | 0.00 | 0.00 | 0.00 | 47 | 1017.8 |
| 20260504180127 | 49 | 354 | 10.0 | 14.0 | 0.00 | 0.00 | 0.00 | 43 | 1018.1 |
| 20260504175623 | 49 | 11 | 3.0 | 8.0 | 0.00 | 0.00 | 0.00 | 42 | 1018.2 |
| 20260504175120 | 49 | 286 | 3.0 | 10.0 | 0.00 | 0.00 | 0.00 | 42 | 1018.1 |
| 20260504174618 | 50 | 299 | 2.0 | 4.0 | 0.00 | 0.00 | 0.00 | 42 | 1018.2 |
| 20260504174114 | 51 | 297 | 7.0 | 10.0 | 0.00 | 0.00 | 0.00 | 40 | 1018.1 |
| 20260504173611 | 51 | 321 | 1.0 | 10.0 | 0.00 | 0.00 | 0.00 | 40 | 1018.2 |
| 20260504173109 | 51 | 298 | 4.0 | 6.0 | 0.00 | 0.00 | 0.00 | 39 | 1018.1 |
| 20260504172605 | 52 | 265 | 3.0 | 6.0 | 0.00 | 0.00 | 0.00 | 37 | 1018.3 |
| 20260504172102 | 53 | 270 | 3.0 | 9.0 | 0.00 | 0.00 | 0.00 | 39 | 1018.2 |
| 20260504171558 | 54 | 26 | 2.0 | 9.0 | 0.00 | 0.00 | 0.00 | 38 | 1018.6 |
| 20260504171056 | 52 | 37 | 5.0 | 7.0 | 0.00 | 0.00 | 0.00 | 39 | 1018.5 |
| 20260504170551 | 51 | 15 | 4.0 | 9.0 | 0.00 | 0.00 | 0.00 | 38 | 1018.7 |
| 20260504150930 | 46 | 226 | 3.0 | 9.0 | 0.00 | 0.00 | 0.00 | 43 | 1019.1 |
| 20260504150426 | 47 | 275 | 1.0 | 8.0 | 0.00 | 0.00 | 0.00 | 43 | 1019.3 |
| 20260504140847 | 46 | 210 | 2.0 | 10.0 | 0.00 | 0.00 | 0.00 | 41 | 1019.0 |
| 20260504140343 | 45 | 268 | 4.0 | 8.0 | 0.00 | 0.00 | 0.00 | 41 | 1019.1 |
| 20260504130812 | 41 | 238 | 1.0 | 2.0 | 0.00 | 0.00 | 0.00 | 49 | 1019.0 |
| 20260504130308 | 40 | 217 | 2.0 | 3.0 | 0.00 | 0.00 | 0.00 | 46 | 1019.1 |
| 20260504120232 | 37 | 212 | 3.0 | 3.0 | 0.00 | 0.00 | 0.00 | 46 | 1018.6 |
| 20260504110659 | 36 | 202 | 3.0 | 3.0 | 0.00 | 0.00 | 0.00 | 50 | 1018.7 |
| 20260504110155 | 36 | 200 | 3.0 | 3.0 | 0.00 | 0.00 | 0.00 | 49 | 1018.9 |
| 20260504100119 | 38 | 202 | 4.0 | 4.0 | 0.00 | 0.00 | 0.00 | 49 | 1019.4 |
| 20260504081512 | 42 | 207 | 3.0 | 4.0 | 0.00 | 0.00 | 0.00 | 38 | 1020.0 |
| 20260504081008 | 43 | 237 | 3.0 | 4.0 | 0.00 | 0.00 | 0.00 | 36 | 1020.2 |
| 20260504080504 | 43 | 218 | 4.0 | 4.0 | 0.00 | 0.00 | 0.00 | 36 | 1020.2 |
| 20260504050317 | 45 | 248 | 1.0 | 4.0 | 0.00 | 0.00 | 0.00 | 37 | 1021.2 |
| 20260504045814 | 45 | 232 | 1.0 | 2.0 | 0.00 | 0.00 | 0.00 | 38 | 1021.4 |
| 20260504045314 | 45 | 234 | 2.0 | 2.0 | 0.00 | 0.00 | 0.00 | 38 | 1021.5 |
| 20260504044812 | 46 | 258 | 2.0 | 2.0 | 0.00 | 0.00 | 0.00 | 37 | 1021.5 |
| 20260504044309 | 46 | 253 | 1.0 | 4.0 | 0.00 | 0.00 | 0.00 | 37 | 1021.6 |
| 20260504043806 | 46 | 253 | 3.0 | 3.0 | 0.00 | 0.00 | 0.00 | 37 | 1021.6 |
| 20260504043303 | 46 | 252 | 2.0 | 7.0 | 0.00 | 0.00 | 0.00 | 37 | 1021.8 |
| 20260504042801 | 46 | 255 | 3.0 | 6.0 | 0.00 | 0.00 | 0.00 | 38 | 1021.8 |
| 20260504042257 | 45 | 248 | 2.0 | 4.0 | 0.00 | 0.00 | 0.00 | 38 | 1021.6 |
| 20260504041753 | 46 | 194 | 2.0 | 2.0 | 0.00 | 0.00 | 0.00 | 38 | 1022.0 |
| 20260504041249 | 46 | 256 | 1.0 | 3.0 | 0.00 | 0.00 | 0.00 | 38 | 1021.8 |
| 20260504040745 | 46 | 249 | 2.0 | 3.0 | 0.00 | 0.00 | 0.00 | 38 | 1021.9 |
| 20260504040243 | 46 | 215 | 2.0 | 6.0 | 0.00 | 0.00 | 0.00 | 38 | 1021.8 |
| 20260504035739 | 46 | 213 | 2.0 | 4.0 | 0.00 | 0.00 | 0.00 | 38 | 1021.9 |
| 20260504035236 | 46 | 247 | 3.0 | 6.0 | 0.00 | 0.00 | 0.00 | 38 | 1021.8 |
| 20260504034734 | 46 | 229 | 3.0 | 6.0 | 0.00 | 0.00 | 0.00 | 38 | 1021.8 |
| 20260504034231 | 46 | 255 | 1.0 | 3.0 | 0.00 | 0.00 | 0.00 | 38 | 1021.9 |
| 20260504033729 | 46 | 256 | 2.0 | 3.0 | 0.00 | 0.00 | 0.00 | 39 | 1021.9 |
| 20260504033226 | 47 | 257 | 1.0 | 6.0 | 0.00 | 0.00 | 0.00 | 38 | 1021.8 |
| 20260504032723 | 47 | 242 | 5.0 | 6.0 | 0.00 | 0.00 | 0.00 | 37 | 1021.9 |
| 20260504032220 | 47 | 261 | 8.0 | 9.0 | 0.00 | 0.00 | 0.00 | 37 | 1021.9 |
| 20260504031716 | 47 | 249 | 3.0 | 6.0 | 0.00 | 0.00 | 0.00 | 37 | 1021.6 |
| 20260504031214 | 47 | 228 | 5.0 | 7.0 | 0.00 | 0.00 | 0.00 | 37 | 1022.0 |
| 20260504030709 | 48 | 229 | 5.0 | 10.0 | 0.00 | 0.00 | 0.00 | 36 | 1021.9 |
| 20260504030207 | 48 | 233 | 9.0 | 14.0 | 0.00 | 0.00 | 0.00 | 35 | 1021.8 |
| 20260504025703 | 47 | 225 | 4.0 | 6.0 | 0.00 | 0.00 | 0.00 | 36 | 1021.8 |
| 20260504025200 | 47 | 196 | 2.0 | 9.0 | 0.00 | 0.00 | 0.00 | 37 | 1021.8 |
| 20260504024657 | 47 | 219 | 7.0 | 9.0 | 0.00 | 0.00 | 0.00 | 36 | 1021.9 |
| 20260504024153 | 47 | 243 | 7.0 | 11.0 | 0.00 | 0.00 | 0.00 | 36 | 1021.6 |
| 20260504023650 | 47 | 255 | 4.0 | 9.0 | 0.00 | 0.00 | 0.00 | 36 | 1021.6 |
| 20260504023146 | 47 | 238 | 3.0 | 4.0 | 0.00 | 0.00 | 0.00 | 39 | 1021.9 |
| 20260504022643 | 47 | 225 | 3.0 | 6.0 | 0.00 | 0.00 | 0.00 | 39 | 1021.8 |
| 20260504022138 | 46 | 213 | 7.0 | 9.0 | 0.00 | 0.00 | 0.00 | 40 | 1021.8 |